Regional Weather Roundup
Issued by NWS

Home | Current Version | Previous Version | Graphics & Text | Print | Product List | Glossary On
Versions: 1 2 3 4 5 6 7 8 9 10 11 12 13 14 15 16 17 18 19 20 21 22 23 24 25 26 27 28 29 30 31 32 33 34 35 36 37 38 39 40 41 42 43 44 45 46 47 48 49 50
000
ASUS43 KDMX 302208
RWRIA

WEATHER ROUNDUP FOR IOWA
NATIONAL WEATHER SERVICE DES MOINES IA
500 PM CDT MON MAY 30 2016

NOTE: "FAIR" INDICATES FEW OR NO CLOUDS BELOW 12,000 FEET WITH NO
SIGNIFICANT WEATHER AND/OR OBSTRUCTIONS TO VISIBILITY.

* - THESE STATIONS ARE NOT NWS STATIONS...THUS NOT UNDER NWS
QUALITY CONTROL.  THEY ALSO DO NOT REPORT WEATHER SUCH
AS PRECIPITATION OR FOG.

IAZ001>003-012>014-020>022-031>034-043>046-302300-
   NORTHWEST IOWA

CITY           SKY/WX    TMP DP  RH WIND       PRES   REMARKS
CARROLL *      MOSUNNY   88  57  35 SW12G20   29.87F HX  86
CHEROKEE *     PTSUNNY   84  57  39 S8        29.86F HX  83
DENISON *      SUNNY     86  55  35 S15G22    29.84F HX  84
LE MARS *      SUNNY     84  57  39 S12       29.85F HX  83
ORANGE CITY *  SUNNY     82  54  36 S9        29.86F HX  81
SHELDON *      SUNNY     84  57  39 S14G22    29.85F HX  83
SIOUX CITY     SUNNY     88  59  37 S16       29.83F HX  87
SPENCER        PTSUNNY   85  53  33 SW9       29.87F HX  83
STORM LAKE *   SUNNY     86  50  28 SW15G22   29.87F HX  84
$$

IAZ055>058-069>071-079>083-090>094-302300-
   SOUTHWEST IOWA

CITY           SKY/WX    TMP DP  RH WIND       PRES   REMARKS
ATLANTIC *     SUNNY     79  64  61 S8        29.89F HX  81
AUDUBON *        N/A     81  61  50 S15       29.91S HX  81
CLARINDA *       N/A     82  59  44 MISG      29.91F HX  82
COUNCIL BLFS * SUNNY     79  63  57 S12       29.88S HX  80
CRESTON *      SUNNY     84  55  37 S20       29.92F HX  83
HARLAN  *      MOSUNNY   82  61  47 S15       29.91F HX  83
LAMONI         SUNNY     83  61  47 S15G23    29.92F HX  83
RED OAK *      CLOUDY    68  55  64 S32G48    29.91S
SHENANDOAH *   PTSUNNY   73  66  78 E9        29.92R
$$

IAZ047>049-059>061-072>074-084-302300-
   CENTRAL IOWA

CITY           SKY/WX    TMP DP  RH WIND       PRES   REMARKS
AMES           CLOUDY    76  65  68 W9        29.92R THUNDER
ANKENY *       MOSUNNY   86  61  42 S13       29.90S HX  86
BOONE *        CLOUDY    64  57  77 SW15G25   29.96R
CHARITON *     MOSUNNY   86  61  42 S15       29.92F HX  86
DES MOINES     MOSUNNY   87  59  38 S13       29.90F HX  86
GRINNELL*      MOSUNNY   86  59  39 S12       29.93F HX  85
KNOXVILLE *    SUNNY     86  59  39 S13       29.90F HX  85
MARSHALLTOWN   MOSUNNY   86  60  41 S14       29.90F HX  86
NEWTON *       MOSUNNY   86  59  39 S14       29.91F HX  85
PELLA *        SUNNY     86  59  39 S9G17     29.93F HX  85
PERRY *        PTSUNNY   84  55  37 S17G24    29.88F HX  83
$$

IAZ004>006-015-016-023>025-035-036-302300-
   NORTH CENTRAL IOWA

CITY           SKY/WX    TMP DP  RH WIND       PRES   REMARKS
ALGONA *       LGT RAIN  75  61  60 N9        29.89F
CLARION *      LGT RAIN  79  63  57 SW7G14    29.90F HX  80
ESTHERVILLE    PTSUNNY   81  54  39 S13       29.88F HX  81
FORT DODGE *   PTSUNNY   84  59  42 S12       29.89F HX  84
MASON CITY     MOSUNNY   82  61  48 SE12      29.93F HX  83
FOREST CITY *  SUNNY     79  59  50 SE7G16    29.91F HX  80
WEBSTER CITY * CLOUDY    82  64  54 S16       29.88F HX  84
IOWA FALLS *     N/A     84  55  37 S12       29.92F HX  83
$$

IAZ007>011-017>019-026>030-037>042-050>054-066-302300-
   NORTHEAST IOWA

CITY           SKY/WX    TMP DP  RH WIND       PRES   REMARKS
CEDAR RAPIDS   SUNNY     84  64  50 S10       29.94F HX  85
CHARLES CITY * SUNNY     81  55  41 SE9       29.94F HX  80
CLINTON *      SUNNY     85  60  42 SW8       29.97F HX  85
DECORAH *      SUNNY     81  50  34 S8        29.96F HX  80
DUBUQUE        SUNNY     83  53  35 N3        29.99F HX  82
MONTICELLO *   SUNNY     84  59  42 W6        29.96F HX  84
OELWEIN *      SUNNY     82  57  42 SE9       29.97F HX  82
WATERLOO       MOSUNNY   83  60  45 E10       29.92F HX  83
$$

IAZ064-065-067-068-078-302300-
   EAST CENTRAL IOWA

CITY           SKY/WX    TMP DP  RH WIND       PRES   REMARKS
DAVENPORT      SUNNY     85  58  39 S10G17    29.97F HX  84
IOWA CITY      MOSUNNY   86  62  44 S8        29.95F HX  86
MT. PLEASANT * MOSUNNY   86  66  51 S9        29.96F HX  88
MUSCATINE *    SUNNY     86  63  45 S10       29.96S HX  87
QUAD CITIES    SUNNY     88  60  38 S8        29.95F HX  87
$$

IAZ062-063-075>077-085>089-095>099-302300-
   SOUTHEAST IOWA

CITY           SKY/WX    TMP DP  RH WIND       PRES   REMARKS
BURLINGTON     MOSUNNY   83  64  52 S10       29.97F HX  84
FAIRFIELD *      N/A    N/A N/A N/A MISG        N/A
FORT MADISON * SUNNY     84  63  48 S6        29.98F HX  85
KEOKUK *       SUNNY     82  66  57 S5        29.97S HX  85
OSKALOOSA *      N/A     88  59  37 S17       29.93F HX  87
OTTUMWA        SUNNY     85  63  47 S14       29.93F HX  86
WASHINGTON *   SUNNY     86 -27   1 S10G16    29.96F HX  81
$$

ABBREVIATIONS USED IN REMARKS
   TC - TEMPERATURES IN CELSIUS
  WCI - WIND CHILL INDEX
   HX - HEAT INDEX
  VSB - VISIBILITY
$$





USA.gov is the U.S. government's official web portal to all federal, state and local government web resources and services.